Voltar ao catálogo

STARLINK-37195

AtivoComunicaçõesSSO
NORAD 68662·PAYLOAD·🇺🇸 United States

Lançado Apr 11, 2026 de Vandenberg Space Force Base

Loading…

Próximas Passagens (próximas 24 horas)

TLE

AtualizadoSource: CelesTrak SupGP

Época: Sep 15, 2026, 04:24 UTC

1 68662C 26077A   26258.18381944 -.00009482  00000+0 -29421-3 0  2584
2 68662  97.2850 128.0822 0001879  95.7330 264.8617 15.33456258    13

Acompanhe STARLINK-37195 em tempo real com AllMySat

Download on the App Store